Location: Unspecified
(55.7024°N, 37.6611°E)
Time: 23:24:03
(UTC+03:00)

SR - Visible Passes

Search period start: 17 June 2025 00:00
Search period end: 27 June 2025 00:00
Orbit: 570 x 855 km, 66.7° (Epoch: 17 June)

Date Brightness Start Highest point End Pass type
(mag) Time Alt. Az. Time Alt. Az. Time Alt. Az.
17 Jun ? 01:21:57 10° NW 01:27:17 73° NE 01:32:07 10° SE visible
17 Jun ? 22:45:13 10° NW 22:49:50 26° N 22:54:09 10° ENE visible
18 Jun ? 00:27:34 10° NW 00:32:45 48° NNE 00:37:30 10° ESE visible
18 Jun ? 02:09:35 10° NW 02:14:35 49° WSW 02:19:10 10° SSE visible
18 Jun ? 23:33:07 10° NW 23:38:03 35° NNE 23:42:37 10° E visible
19 Jun ? 01:15:06 10° NW 01:20:23 85° SW 01:25:11 10° SE visible
19 Jun ? 22:38:33 10° NW 22:43:13 28° NNE 22:47:36 10° ENE visible
20 Jun ? 00:20:42 10° NW 00:25:57 60° NE 00:30:46 10° ESE visible
20 Jun ? 02:02:51 10° NW 02:07:29 35° WSW 02:11:46 10° S visible
20 Jun ? 23:26:18 10° NW 23:31:21 41° NNE 23:36:00 10° E visible
21 Jun ? 01:08:15 10° NW 01:13:25 63° SW 01:18:05 10° SSE visible
21 Jun ? 22:31:48 10° NW 22:36:35 31° NNE 22:41:02 10° E visible
22 Jun ? 00:13:50 10° NW 00:19:06 78° NE 00:23:54 10° SE visible
22 Jun ? 01:56:14 10° WNW 02:00:19 25° WSW 02:04:00 11° SSW visible
22 Jun ? 23:19:26 10° NW 23:24:36 50° NE 23:29:19 10° ESE visible
23 Jun ? 01:01:28 10° NW 01:06:22 45° WSW 01:10:24 12° SSE visible
23 Jun ? 22:25:00 10° NW 22:29:55 36° NNE 22:34:27 10° E visible
24 Jun ? 00:06:58 10° NW 00:12:10 80° SW 00:16:53 10° SE visible
24 Jun ? 01:49:49 10° WNW 01:53:04 17° WSW 01:55:56 11° SSW visible
24 Jun ? 23:12:34 10° NW 23:17:47 63° NE 23:22:31 10° ESE visible
25 Jun ? 00:54:45 10° NW 00:59:14 32° WSW 01:02:31 15° S visible
25 Jun ? 22:18:09 10° NW 22:23:12 42° NNE 22:27:48 10° ESE visible
26 Jun ? 00:00:08 10° NW 00:05:11 58° SW 00:09:09 14° SSE visible
26 Jun ? 01:44:01 10° W 01:45:45 12° WSW 01:47:27 10° SW visible
26 Jun ? 23:05:41 10° NW 23:10:53 83° NE 23:15:38 10° SE visible
